350  
NZUS01 KOTX 211925  
RWROTX  
 
EASTERN WASHINGTON/NORTHERN IDAHO ROUNDUP  
NATIONAL WEATHER SERVICE, SPOKANE WA  
1200 PM PDT SAT SEP 21 2019  
 
NOTE: "FAIR" INDICATED FEW OR NO CLOUDS BELOW 12,000 FEET WITH NO  
SIGNIFICANT WEATHER AND/OR S TO VISIBILITY
.  
   
..NORTHEAST WASHINGTON AND NORTHERN IDAHO PANHANDLE
 
 
 
CITY SKY/WX TMP DP RH WIND PRES REMARKS
 
SPOKANE INTL PTSUNNY 61 46 57 SW9 30.09F  
SPOKANE DOWNTO MOSUNNY 63 48 58 S5 30.10F  
COEUR D ALENE CLOUDY 59 48 67 SE7 30.11F  
DEER PARK SUNNY 58 47 66 CALM 30.11F  
SANDPOINT PTSUNNY 61 45 55 S8 30.08F  
BONNERS FERRY MOCLDY 61 48 63 S6 30.06F  
   
..SOUTHEAST WASHINGTON AND SOUTHERN IDAHO PANHANDLE
 
 
 
CITY SKY/WX TMP DP RH WIND PRES REMARKS
 
WALLA WALLA SUNNY 68 47 46 SW13 30.10F  
PULLMAN/MOSCOW SUNNY 64 45 49 W10 30.13F  
LEWISTON MOSUNNY 67 51 56 CALM 30.10F  
LOWELL N/A 62 55 77 CALM 30.11F  
GRANGEVILLE MOCLDY 61 46 59 W7 30.13S  
   
..COLUMBIA BASIN
 
 
 
CITY SKY/WX TMP DP RH WIND PRES REMARKS
 
EPHRATA SUNNY 68 44 42 SE8 30.06F  
MOSES LAKE SUNNY 70 46 42 S10 30.07F  
PASCO SUNNY 72 47 40 SW8 30.08F  
RICHLAND CLEAR 73 47 39 S9 30.07F  
HERMISTON SUNNY 72 49 44 W9 30.08F  
PENDLETON SUNNY 70 46 42 W14 30.10F  
   
..EAST SLOPES CASCADES
 
 
 
CITY SKY/WX TMP DP RH WIND PRES REMARKS
 
THE DALLES SUNNY 70 52 52 CALM 30.08F  
YAKIMA SUNNY 69 44 40 VRB3 30.07F  
ELLENSBURG SUNNY 70 44 39 S7 30.06F  
STAMPEDE PASS SUNNY 55 48 77 VRB6 30.13F  
WENATCHEE SUNNY 67 44 43 CALM 30.05F  
WINTHROP FAIR 67 44 43 SE6 30.04F  
OMAK SUNNY 64 44 48 SE5 30.05F  
SUNNYSIDE CLEAR 69 49 48 CALM 30.07F  
   
..SOUTHERN BRITISH COLUMBIA
 
 
 
CITY SKY/WX TMP DP RH WIND PRES REMARKS
 
PENTICTON MOSUNNY 64 48 55 S5 30.03F  
CASTLEGAR PTSUNNY 61 48 63 SW2 30.06F  
CRANBROOK PTSUNNY 59 43 55 VRB3 30.03F  
OSOYOOS N/A 64 43 45 SW2 N/A  
CRESTON N/A 61 50 67 SW3 N/A  
   
..WESTERN MONTANA
 
 
 
CITY SKY/WX TMP DP RH WIND PRES REMARKS
 
KALISPELL CLOUDY 59 46 62 S7 30.04F  
LIBBY N/A 59 50 72 CALM 30.05F  
MISSOULA CLOUDY 59 44 57 CALM 30.08F  
   
..NEIGHBORING CITIES
 
 
 
CITY SKY/WX TMP DP RH WIND PRES REMARKS
 
SEATTLE CLOUDY 63 53 70 SW7 30.13F  
PORTLAND PTSUNNY 67 52 58 N6 30.14F  
BOISE SUNNY 64 44 48 NW9 30.14F  
GREAT FALLS SUNNY 60 42 51 SW10G20 30.00F  
CALGARY PTSUNNY 61 37 41 W3 29.90F  
 
CLICK HERE TO GO TO PREVIOUS BULLETINS.

The Nexlab WA Page
The Nexlab ID Page Main Text Page